{"data":{"norad_id":55826,"intl_designator":"2023-029AG","name":"ONEWEB-0666","alt_names":[],"object_type":"PAYLOAD","status":"ACTIVE","operator":null,"country":"UK","launch_date":"2023-03-09","launch_site_code":"AFETR","launch_vehicle":null,"mission":null,"orbit_class":"UNKNOWN","rcs_meters":null,"size_class":null,"mass_kg":null,"dimensions":null,"purposes":["comms"],"wikipedia_slug":null,"has_3d_model":false,"image_url":null,"decayed_at":null,"tle_current":{"epoch":"2026-05-25T01:52:50.729952Z","epoch_age_seconds":61482,"freshness":"FRESH","line1":"1 55826U 23029AG  26145.07836493 -.00000544  00000+0 -13706-2 0  9993","line2":"2 55826  87.9163 279.0821 0002086 119.1856 240.9486 13.20772701158106","mean_motion":13.20772701,"eccentricity":0.0002086,"inclination_deg":87.9163,"raan_deg":279.0821,"arg_perigee_deg":119.1856,"mean_anomaly_deg":240.9486,"bstar":-0.0013706,"rev_number":15810,"period_min":109.02708686436,"perigee_km":1180.1929873592,"apogee_km":1183.346980553,"semimajor_km":7559.9069839561,"source":"CELESTRAK","updated_at":"2026-05-25T13:38:22.696864Z"}}}